{"data":{"norad_id":53000,"epoch":"2026-05-25T04:43:12.258624Z","epoch_age_seconds":58330,"freshness":"FRESH","line1":"1 53000U 22076Q   26145.19666966  .00000165  00000+0  28430-4 0  9994","line2":"2 53000  53.2134 110.6672 0001399  76.6665 283.4483 15.08835174214392","mean_motion":15.08835174,"eccentricity":0.0001399,"inclination_deg":53.2134,"raan_deg":110.6672,"arg_perigee_deg":76.6665,"mean_anomaly_deg":283.4483,"bstar":2.843e-5,"rev_number":21439,"period_min":95.437859934196,"perigee_km":538.79032662464,"apogee_km":540.72595368486,"semimajor_km":6917.8951401548,"source":"CELESTRAK","updated_at":"2026-05-25T13:38:17.276062Z"}}